[Date Prev][Date Next][Thread Prev][Thread Next] - [Date Index][Thread Index][Author Index]
2 Line ISS Keps 8-29
- Subject: [sarex] 2 Line ISS Keps 8-29
- From: "Dave Larsen PhD" <doc@xxxxxxxxxxx>
- Date: Sun, 29 Aug 2004 05:31:31 -0700
ISS
1 25544U 98067A 04242.48232539 .00014037 00000-0 12332-3 0 5601
2 25544 51.6373 311.5581 0005627 90.7370 7.2805 15.69103516329831
----
Via the sarex mailing list at AMSAT.ORG courtesy of AMSAT-NA.
To unsubscribe, send "unsubscribe sarex" to Majordomo@amsat.org
AMSAT Home